Wind_Speed
35 36 36 35 33 30 28 26 24 23 21 20 18 17 16 15 14 13 11 10 9 7 6 6 5 4 4 3 2 2 2 2 2 2 1 2 2 3 4 5 7 8 9
36 37 38 38 36 33 31 29 27 25 24 22 20 19 17 16 15 14 13 12 11 9 8 7 6 5 5 4 3 3 3 3 3 2 2 3 3 3 5 6 7 8 9
37 38 39 39 38 36 33 31 29 28 26 24 22 21 19 18 17 16 15 14 12 11 10 9 8 7 6 5 5 4 4 4 4 4 4 4 4 4 5 6 7 8 9
39 39 41 41 40 38 36 34 32 30 28 27 25 23 21 20 19 18 17 15 14 13 12 11 10 9 8 7 6 6 5 5 5 5 5 5 5 5 6 6 7 8 10
41 42 42 43 42 40 38 36 34 32 31 29 27 25 24 22 21 20 19 17 16 15 14 13 11 10 9 8 8 7 6 6 6 5 5 6 6 6 7 7 8 9 10
43 44 44 45 44 43 41 39 36 34 33 31 29 28 26 24 23 22 20 19 18 17 16 14 13 12 11 10 9 8 8 7 7 7 6 7 7 7 8 8 9 10 11
45 45 46 46 46 45 43 41 39 36 35 33 32 30 28 26 25 23 22 21 20 18 17 16 15 13 12 11 10 10 9 9 8 8 8 8 8 8 9 9 10 11 12
46 47 48 49 48 47 45 43 41 39 37 35 34 32 30 28 27 25 24 23 21 20 19 18 16 15 14 13 12 11 11 10 10 9 9 9 9 9 10 10 11 12 13
48 48 49 50 50 50 48 45 43 41 39 37 36 35 32 30 28 27 26 25 23 22 21 20 18 17 16 15 14 13 12 11 11 11 11 11 11 11 11 11 12 13 14
50 50 51 51 51 51 50 47 45 43 41 39 38 37 35 32 30 29 28 26 25 24 23 21 20 19 18 17 16 15 14 13 13 13 13 12 12 12 13 13 14 14 15
50 51 52 52 52 52 52 50 47 45 43 41 40 38 36 34 32 31 30 28 27 26 24 23 22 21 20 19 18 17 16 15 15 14 14 14 14 14 14 15 16 16 17
51 52 53 52 53 52 52 52 50 47 45 43 41 40 38 36 34 32 32 30 29 27 26 25 24 23 22 21 20 19 18 17 17 16 16 16 16 17 17 17 18 18 19
52 53 54 53 54 52 52 53 52 50 48 45 43 42 40 38 36 34 33 32 31 29 28 27 26 25 24 23 22 21 20 19 19 19 18 18 19 19 19 19 20 20 21
53 54 55 53 54 52 51 53 53 52 50 48 46 44 42 40 38 37 35 34 33 31 30 29 28 27 26 25 24 23 22 22 21 21 21 21 21 21 21 22 22 23 24
53 55 57 55 53 54 52 53 54 53 52 51 48 46 44 42 41 39 38 36 35 33 32 31 30 28 28 27 26 25 24 24 23 23 23 23 23 23 24 24 25 25 26
53 54 56 55 55 54 53 53 54 53 53 53 51 49 47 46 44 42 40 38 37 35 34 33 31 30 30 29 28 27 27 26 26 25 25 25 25 26 26 27 27 28 29
52 54 55 56 55 54 53 52 53 53 53 52 52 51 50 48 46 44 42 40 39 38 36 35 33 32 31 31 30 29 28 28 28 28 27 27 27 28 28 29 29 30 30
52 53 53 54 53 53 52 51 51 51 52 52 52 52 51 49 47 46 44 42 41 39 38 37 35 34 33 32 32 31 30 30 30 30 29 29 29 29 30 31 31 32 32
50 50 51 50 50 52 52 50 52 51 52 53 53 52 52 50 49 48 46 44 42 41 40 39 37 36 35 34 33 32 32 31 31 31 31 31 31 31 32 32 33 33 34
48 46 47 50 49 51 50 47 50 49 50 53 54 53 52 51 50 49 48 46 44 43 42 41 39 38 36 35 34 34 33 33 33 33 33 33 33 33 33 33 34 34 34
45 44 44 46 46 48 48 47 49 50 50 51 53 53 53 53 51 51 50 49 47 45 43 41 40 38 36 35 35 35 35 34 34 34 34 35 35 35 34 34 34 35 35
42 42 41 42 44 47 47 46 47 49 49 49 51 53 53 51 50 50 50 49 48 46 44 42 41 39 37 37 36 36 35 34 34 34 35 36 36 35 35 35 35 36 36
41 40 39 41 43 43 42 42 45 47 48 49 49 51 52 52 52 51 50 50 49 48 46 44 43 42 40 39 38 36 35 36 35 35 35 36 36 36 36 36 36 36 36
35 35 36 37 38 38 39 40 42 44 47 48 49 50 51 51 52 50 49 48 47 47 46 46 44 42 40 39 38 37 37 36 37 36 35 35 35 36 36 37 36 36 36
31 32 33 35 35 35 35 36 38 42 43 46 48 48 48 47 48 48 48 45 45 45 44 44 42 40 39 39 38 38 38 38 38 37 37 37 37 37 37 37 37 36 36
26 28 29 30 33 33 33 31 33 36 39 42 43 43 45 45 45 45 46 45 44 43 42 40 40 39 40 40 39 38 38 39 40 40 39 38 38 38 37 37 37 37 38
Wind_Direction
237 236 235 235 235 235 235 237 237 236 236 235 234 237 240 243 244 243 244 247 247 246 249 253 257 261 266 273 274 267 260 259 252 248 262 291 321 333 340 345 349 352 353
239 237 235 234 234 234 233 234 236 236 235 235 234 236 238 241 243 243 244 245 245 244 247 250 252 255 258 261 263 263 261 263 259 259 269 281 296 312 323 332 338 343 347
241 236 235 234 233 233 232 232 234 235 235 235 234 235 237 239 241 242 245 245 244 243 245 247 250 253 255 257 257 259 261 261 261 263 268 276 288 300 312 322 330 336 340
242 236 234 234 233 232 231 231 232 234 235 234 234 234 236 238 240 242 244 245 243 243 245 246 248 250 252 253 255 256 259 259 260 262 267 275 285 295 305 315 322 328 333
242 236 234 233 232 231 230 230 231 233 234 234 234 234 235 238 240 242 243 243 243 244 245 246 248 249 250 252 253 255 259 260 260 262 268 275 284 293 302 310 316 322 328
242 236 233 232 232 231 230 230 230 231 233 234 234 234 235 237 240 242 242 242 243 243 244 245 247 248 249 252 253 255 258 260 261 263 269 276 283 292 299 306 312 318 323
242 235 233 232 231 230 230 229 229 230 231 233 233 233 234 236 239 241 241 241 242 243 244 245 246 247 249 251 253 255 258 260 261 264 270 276 284 290 296 301 307 313 318
241 235 233 232 231 230 229 229 229 229 230 232 233 233 233 235 238 240 241 241 242 244 244 245 245 246 247 250 252 255 258 260 262 264 269 276 282 287 292 298 303 308 314
239 234 232 231 230 230 229 228 229 229 230 231 232 232 233 234 237 239 240 241 242 243 244 245 245 245 247 249 251 255 258 261 264 266 269 274 279 284 289 294 299 304 308
237 232 230 229 230 229 229 228 229 229 230 231 232 233 233 234 237 239 240 241 242 243 244 245 246 247 248 249 252 254 257 260 262 266 270 274 277 281 286 290 295 299 303
234 231 229 228 228 228 228 228 228 229 229 231 232 233 233 234 237 239 240 241 243 244 245 246 247 248 249 250 252 254 256 259 261 265 269 273 276 279 283 288 292 296 299
231 229 227 227 226 227 228 228 228 229 229 231 232 233 234 235 237 239 240 242 243 245 246 247 248 249 249 251 253 254 256 258 260 263 267 271 275 278 282 286 290 294 297
230 227 224 224 224 225 227 227 228 229 230 231 232 233 234 235 236 239 241 242 243 245 246 247 248 249 250 252 253 255 257 258 260 263 267 270 273 277 281 284 288 291 294
228 225 222 221 221 223 226 227 227 228 229 230 231 233 234 235 236 238 241 242 243 245 246 247 248 249 251 252 254 255 257 259 261 263 266 269 272 275 279 283 286 289 292
226 224 221 220 220 221 223 224 226 227 228 229 230 232 233 234 236 238 240 242 243 245 246 247 248 249 251 253 255 256 258 260 261 263 266 268 271 274 278 281 285 288 291
224 223 222 221 219 218 221 223 225 226 227 228 229 231 232 234 235 238 239 241 243 245 245 247 248 249 251 253 255 257 258 260 262 264 266 268 271 274 277 280 284 287 290
223 222 222 222 222 220 221 223 224 225 226 227 228 230 231 233 235 237 239 241 243 245 246 247 249 250 251 254 255 257 259 261 263 265 266 269 272 274 277 281 284 286 289
222 222 222 223 224 223 222 222 222 223 226 226 228 229 230 232 234 236 238 240 242 243 245 247 248 249 252 254 256 258 260 263 264 266 267 270 272 275 277 280 283 285 288
222 221 221 221 225 224 223 223 220 221 225 226 228 228 230 231 234 236 237 239 242 243 245 247 248 249 251 254 256 259 262 264 266 268 269 271 273 275 277 280 282 285 287
219 220 220 222 225 224 223 222 220 221 223 225 227 227 230 231 234 236 237 239 241 242 244 245 247 249 251 253 256 259 262 264 267 269 271 273 275 277 278 280 282 285 288
219 219 218 221 223 223 223 223 223 222 222 225 226 227 229 231 234 236 236 238 240 242 244 245 246 248 250 253 256 258 261 264 267 270 273 275 276 278 279 281 283 286 288
218 218 218 220 220 220 222 223 223 222 223 224 226 227 228 231 234 235 237 238 240 242 244 246 248 249 250 253 256 259 262 265 268 271 273 274 276 277 279 281 283 286 289
219 219 220 222 222 221 222 220 221 221 223 223 225 228 230 231 234 237 238 240 241 244 245 247 250 251 252 254 256 259 262 265 267 270 273 274 276 277 279 282 285 287 290
217 217 218 223 222 222 223 222 224 225 225 225 227 230 232 233 236 238 240 241 243 246 247 248 250 251 254 254 256 259 263 266 268 270 272 275 277 278 280 283 285 288 290
218 218 221 223 221 221 223 224 226 226 227 228 228 230 232 233 234 236 239 241 242 245 248 250 251 252 255 256 258 260 263 266 268 270 271 273 275 277 280 283 285 288 290
220 220 223 226 226 225 224 224 226 228 229 230 230 231 232 234 235 237 238 240 242 245 249 251 251 252 255 258 260 262 264 267 269 270 271 272 274 276 279 281 285 289 291
Height
5846 5848 5851 5854 5857 5860 5863 5865 5868 5870 5871 5873 5873 5874 5875 5876 5877 5877 5878 5879 5879 5880 5880 5880 5880 5880 5880 5880 5880 5880 5880 5880 5881 5881 5881 5881 5881 5881 5881 5881 5880 5879 5879
5840 5843 5846 5849 5852 5855 5858 5861 5864 5866 5868 5870 5871 5872 5873 5874 5875 5876 5876 5877 5878 5878 5879 5879 5879 5879 5879 5879 5879 5879 5880 5880 5880 5880 5880 5881 5881 5881 5880 5880 5880 5879 5878
5833 5837 5840 5843 5847 5850 5854 5857 5860 5862 5864 5866 5868 5869 5870 5871 5872 5873 5874 5875 5876 5877 5877 5878 5878 5878 5878 5878 5878 5878 5879 5879 5879 5879 5880 5880 5880 5880 5879 5879 5879 5878 5877
5826 5830 5833 5837 5841 5845 5848 5852 5855 5858 5860 5862 5864 5866 5867 5868 5870 5871 5872 5873 5874 5875 5876 5876 5876 5877 5877 5877 5877 5877 5878 5878 5878 5878 5878 5879 5879 5879 5878 5878 5878 5877 5876
5818 5823 5826 5830 5835 5839 5843 5846 5850 5853 5856 5858 5860 5862 5864 5865 5867 5868 5869 5871 5872 5873 5874 5874 5875 5875 5875 5876 5876 5876 5876 5876 5877 5877 5877 5877 5877 5877 5877 5877 5876 5875 5875
5809 5815 5819 5823 5828 5832 5837 5841 5844 5848 5851 5853 5856 5858 5860 5862 5863 5865 5867 5868 5869 5870 5871 5872 5873 5873 5874 5874 5874 5874 5875 5875 5875 5876 5876 5876 5876 5876 5875 5875 5875 5874 5873
5801 5807 5811 5816 5821 5826 5830 5834 5838 5842 5845 5849 5851 5854 5856 5858 5860 5862 5863 5865 5866 5867 5868 5869 5870 5871 5871 5872 5872 5873 5873 5873 5874 5874 5874 5874 5874 5874 5874 5873 5873 5872 5872
5792 5798 5802 5808 5813 5818 5823 5828 5832 5836 5840 5843 5846 5849 5851 5854 5856 5858 5860 5861 5863 5864 5865 5866 5867 5868 5869 5870 5870 5871 5871 5872 5872 5872 5872 5872 5872 5872 5872 5871 5871 5870 5870
5782 5788 5794 5800 5805 5811 5816 5821 5826 5830 5834 5837 5841 5843 5846 5849 5851 5854 5856 5857 5859 5861 5862 5863 5864 5865 5866 5867 5868 5868 5869 5869 5870 5870 5870 5870 5870 5870 5870 5869 5869 5868 5867
5773 5779 5785 5791 5797 5804 5809 5814 5819 5824 5828 5831 5835 5838 5841 5844 5847 5849 5851 5853 5855 5857 5858 5860 5861 5862 5863 5864 5865 5865 5866 5867 5867 5868 5868 5868 5868 5867 5867 5867 5866 5866 5865
5764 5770 5776 5783 5789 5795 5801 5807 5812 5817 5821 5825 5829 5832 5835 5839 5842 5844 5847 5849 5851 5853 5854 5856 5857 5859 5860 5861 5861 5862 5863 5864 5864 5864 5865 5865 5865 5864 5864 5864 5863 5863 5862
5755 5761 5768 5774 5781 5787 5793 5799 5805 5810 5814 5819 5822 5826 5830 5833 5837 5839 5842 5844 5846 5848 5850 5852 5853 5855 5856 5857 5858 5859 5860 5860 5861 5861 5861 5861 5861 5861 5861 5860 5860 5859 5858
5745 5752 5759 5765 5771 5777 5784 5790 5797 5802 5807 5812 5816 5820 5824 5827 5831 5834 5836 5839 5841 5843 5845 5847 5849 5850 5852 5853 5854 5855 5856 5856 5857 5857 5857 5857 5857 5857 5857 5857 5856 5855 5855
5736 5742 5749 5755 5761 5768 5774 5780 5787 5794 5800 5805 5809 5813 5818 5822 5825 5828 5831 5833 5836 5838 5840 5842 5844 5846 5847 5848 5850 5850 5851 5852 5853 5853 5853 5853 5853 5853 5853 5853 5852 5851 5850
5727 5733 5740 5748 5753 5760 5765 5771 5778 5785 5791 5797 5802 5807 5811 5815 5818 5822 5825 5828 5830 5833 5835 5837 5839 5841 5842 5844 5845 5846 5847 5847 5848 5849 5849 5849 5849 5849 5848 5848 5847 5846 5845
5718 5725 5732 5739 5744 5751 5756 5762 5769 5776 5782 5788 5794 5799 5803 5807 5811 5815 5818 5821 5824 5827 5829 5831 5833 5835 5837 5838 5839 5840 5841 5842 5843 5844 5844 5844 5844 5844 5843 5843 5842 5841 5840
5710 5716 5724 5731 5737 5743 5749 5754 5760 5767 5773 5780 5785 5790 5795 5800 5804 5808 5811 5815 5818 5820 5823 5825 5827 5829 5831 5832 5834 5835 5836 5836 5837 5838 5838 5838 5838 5838 5838 5837 5836 5835 5834
5702 5708 5715 5723 5729 5735 5742 5747 5752 5759 5765 5771 5777 5782 5787 5791 5796 5800 5804 5807 5810 5813 5816 5818 5821 5823 5824 5826 5827 5829 5830 5830 5831 5832 5832 5832 5833 5832 5832 5831 5830 5829 5828
5694 5701 5708 5716 5722 5728 5734 5740 5745 5751 5757 5763 5768 5773 5778 5783 5788 5792 5796 5800 5803 5806 5809 5811 5813 5816 5818 5819 5821 5822 5823 5824 5825 5825 5826 5826 5826 5826 5825 5825 5824 5823 5821
5686 5694 5701 5708 5714 5721 5727 5732 5737 5743 5749 5754 5760 5765 5770 5775 5779 5783 5788 5792 5795 5798 5801 5803 5806 5808 5810 5812 5814 5815 5816 5817 5818 5819 5819 5819 5819 5819 5818 5818 5817 5816 5814
5679 5687 5694 5701 5707 5713 5719 5725 5731 5736 5741 5747 5752 5757 5762 5766 5771 5775 5779 5783 5787 5790 5793 5795 5798 5801 5803 5805 5807 5808 5809 5810 5811 5812 5812 5812 5812 5811 5811 5810 5809 5808 5807
5673 5681 5687 5693 5699 5706 5713 5718 5724 5729 5734 5740 5745 5749 5754 5758 5763 5767 5771 5775 5779 5782 5785 5788 5791 5793 5795 5797 5799 5800 5802 5803 5804 5804 5804 5804 5804 5804 5803 5802 5802 5801 5800
5668 5674 5681 5687 5693 5700 5707 5712 5717 5722 5727 5732 5737 5741 5746 5751 5755 5759 5763 5767 5770 5774 5777 5780 5782 5785 5787 5789 5791 5793 5794 5795 5796 5797 5796 5796 5796 5796 5796 5795 5794 5793 5792
5663 5669 5676 5682 5688 5695 5700 5706 5711 5716 5721 5726 5731 5735 5739 5743 5748 5752 5755 5759 5762 5766 5769 5771 5774 5777 5779 5780 5782 5784 5785 5786 5788 5789 5789 5788 5788 5788 5787 5787 5786 5785 5783
5659 5666 5672 5678 5683 5689 5694 5701 5706 5711 5715 5720 5724 5728 5732 5736 5740 5744 5748 5751 5754 5757 5760 5763 5766 5768 5770 5772 5774 5775 5776 5777 5778 5780 5780 5781 5780 5780 5779 5778 5778 5776 5775
5656 5662 5668 5673 5679 5684 5690 5695 5700 5705 5709 5713 5717 5720 5725 5729 5732 5736 5740 5743 5746 5749 5752 5755 5757 5760 5761 5763 5765 5766 5768 5769 5769 5770 5771 5771 5772 5772 5771 5770 5769 5768 5767